Weather

DAILY 7 DAY TOTAL
onrain

Note: Some stations are located near irrigated fields and may also report irrigation

Alliston Mount Forest Blyth Guelph Grand Bend Strathroy Woodstock Belmont Simcoe Leamington Chatham West Lorne






Simcoe-Research Station - Historical Weather Data
Date Max Temp (°C) Min Temp (°C) Avg Temp (°C) Rain (mm) 7Day Rain(mm) Total Rain(mm) Avg RH (%)
9/22/2018 16.4 7.8 12.4 0.0 0.8 412.6 73.8
9/21/2018 30.3 16.9 24.1 0.6 0.8 412.6 72.9
9/20/2018 21.3 12.6 17.1 0.0 0.2 412.0 87.4
9/19/2018 23.5 13.8 17.8 0.0 0.2 412.0 79.6
9/18/2018 27.2 17.1 21.3 0.2 0.4 412.0 86.7
9/17/2018 25.9 18.2 21.7 0.0 0.8 411.8 87.9
9/16/2018 28.1 17.8 22.8 0.0 31.2 411.8 85.2
9/15/2018 28.6 18.2 22.6 0.0 31.8 411.8 87.7
9/14/2018 27.6 17.9 22.6 0.0 31.8 411.8 86.5
9/13/2018 25.3 16.8 20.4 0.0 31.8 411.8 92.1
9/12/2018 23.8 11.6 17.3 0.2 31.8 411.8 90.1
9/11/2018 17.8 12.5 15.3 0.6 31.6 411.6 95.4
9/10/2018 15.5 11.1 13.4 30.4 37.0 411.0 99.1
9/9/2018 14.6 10.5 12.7 0.6 14.2 380.6 69.7
9/8/2018 16.8 10.9 14.6 0.0 19.6 380.0 73.6
9/7/2018 23.7 15.4 19.4 0.0 19.6 380.0 79.2
9/6/2018 25.5 19.5 22.6 0.0 19.6 380.0 80.9
9/5/2018 31.6 21.3 26.6 0.0 19.6 380.0 80.1
9/4/2018 28.8 20.0 23.5 6.0 19.6 380.0 92.5
9/3/2018 30.9 21.1 24.3 7.6 13.6 374.0 89.3
9/2/2018 29.2 21.1 24.4 6.0 14.6 366.4 87.4
9/1/2018 28.7 14.5 21.8 0.0 9.2 360.4 87.9
8/31/2018 24.7 11.8 18.1 0.0 9.2 360.4 80.6
8/30/2018 21.5 13.9 18.0 0.0 9.2 360.4 80.2
8/29/2018 28.4 20.5 24.9 0.0 9.2 360.4 80.3
8/28/2018 29.4 24.1 26.7 0.0 10.2 360.4 78.9
8/27/2018 29.2 19.9 24.2 8.6 21.2 360.4 89.5
8/26/2018 28.5 21.4 24.1 0.6 12.6 351.8 86.1
8/25/2018 24.8 19.2 22.1 0.0 12.0 351.2 78.1
8/24/2018 25.4 16.5 21.0 0.0 24.8 351.2 73.4
8/23/2018 25.5 12.5 19.0 0.0 52.0 351.2 72.3
8/22/2018 21.9 13.7 18.5 1.0 52.2 351.2 82.8
8/21/2018 25.5 19.9 22.3 11.0 51.2 350.2 91.5
8/20/2018 24.9 16.3 20.8 0.0 40.2 339.2 88.2
8/19/2018 24.9 16.1 20.0 0.0 40.2 339.2 85.6
8/18/2018 24.8 17.8 21.4 12.8 40.2 339.2 85.0
8/17/2018 27.8 21.4 23.8 27.2 27.4 326.4 90.4
8/16/2018 27.6 19.3 23.5 0.2 0.2 299.2 87.8
8/15/2018 29.7 20.1 24.2 0.0 0.0 299.0 79.1
8/14/2018 29.3 19.5 23.9 0.0 31.4 299.0 74.2
8/13/2018 27.4 16.7 22.1 0.0 42.0 299.0 72.5
8/12/2018 27.4 16.3 22.0 0.0 42.4 299.0 72.6
8/11/2018 27.5 13.4 20.9 0.0 42.4 299.0 71.9
8/10/2018 25.3 17.1 21.1 0.0 42.4 299.0 76.8
8/9/2018 27.9 16.7 22.3 0.0 42.4 299.0 83.6
8/8/2018 26.2 20.3 22.5 31.4 42.4 299.0 92.6
8/7/2018 26.4 21.3 23.3 10.6 11.0 267.6 91.3
8/6/2018 31.3 22.2 25.6 0.4 0.4 257.0 80.7
8/5/2018 31.6 18.0 25.1 0.0 0.2 256.6 78.9
8/4/2018 29.7 18.1 23.6 0.0 4.6 256.6 77.4
8/3/2018 27.7 17.7 22.6 0.0 4.8 256.6 85.6
8/2/2018 27.1 18.5 22.5 0.0 5.8 256.6 81.4
8/1/2018 25.0 19.2 22.4 0.0 5.8 256.6 85.4
7/31/2018 25.0 18.1 21.3 0.0 5.8 256.6 88.4
7/30/2018 25.3 16.0 20.5 0.2 7.0 256.6 85.3
7/29/2018 25.4 13.3 19.2 4.4 6.8 256.4 80.0
7/28/2018 23.3 15.5 19.3 0.2 31.4 252.0 77.6
7/27/2018 25.5 16.7 21.2 1.0 40.4 251.8 74.6
7/26/2018 27.9 15.9 22.2 0.0 43.8 250.8 80.5
7/25/2018 29.3 19.7 24.0 0.0 43.8 250.8 79.7
7/24/2018 28.7 19.5 23.6 1.2 43.8 250.8 87.7
7/23/2018 26.9 18.8 23.0 0.0 42.6 249.6 84.9
7/22/2018 22.1 15.1 18.4 29.0 42.6 249.6 93.5
7/21/2018 25.5 19.8 22.4 9.2 13.6 220.6 81.2
7/20/2018 30.3 16.1 23.2 4.4 8.0 211.4 73.5
7/19/2018 26.7 9.6 19.3 0.0 3.6 207.0 63.7
7/18/2018 25.0 13.7 19.6 0.0 3.6 207.0 69.2
7/17/2018 27.3 17.1 22.8 0.0 3.6 207.0 64.1
7/16/2018 31.7 20.2 25.7 0.0 3.6 207.0 79.5
7/15/2018 29.7 19.4 24.6 0.0 3.6 207.0 84.4
7/14/2018 30.0 19.8 23.6 3.6 3.6 207.0 77.1
7/13/2018 29.6 17.3 24.0 0.0 0.0 203.4 62.6
7/12/2018 28.2 13.8 21.7 0.0 0.0 203.4 62.2
7/11/2018 27.1 15.1 21.1 0.0 0.2 203.4 60.6
7/10/2018 30.6 18.6 24.6 0.0 0.2 203.4 56.1
7/9/2018 29.5 13.7 22.7 0.0 0.2 203.4 67.3
7/8/2018 27.3 11.6 20.4 0.0 5.6 203.4 65.0
7/7/2018 24.1 12.7 19.0 0.0 5.6 203.4 57.4
7/6/2018 25.1 15.2 20.9 0.0 5.6 203.4 57.6
7/5/2018 31.5 21.6 26.2 0.2 5.6 203.4 85.9
7/4/2018 30.8 20.7 25.9 0.0 5.4 203.2 76.0
7/3/2018 30.9 18.6 24.9 0.0 12.8 203.2 67.8
7/2/2018 31.2 22.1 26.3 5.4 12.8 203.2 81.6
7/1/2018 32.0 21.1 26.8 0.0 7.6 197.8 76.3
6/30/2018 31.2 20.2 26.2 0.0 21.0 197.8 78.8
6/29/2018 30.0 17.3 24.5 0.0 25.0 197.8 73.8
6/28/2018 28.3 19.6 22.9 0.0 57.0 197.8 81.7
6/27/2018 21.7 17.2 19.7 7.4 57.0 197.8 96.1
6/26/2018 25.2 10.8 18.4 0.0 49.8 190.4 66.0
6/25/2018 23.0 12.9 17.5 0.2 49.8 190.4 75.1
6/24/2018 20.0 15.6 17.7 13.4 94.0 190.2 98.8
6/23/2018 22.4 16.6 18.6 4.0 80.6 176.8 94.5
6/22/2018 19.8 12.1 15.8 32.0 76.6 172.8 77.7
6/21/2018 22.1 13.6 18.1 0.0 44.6 140.8 73.0
6/20/2018 22.6 15.9 18.3 0.2 44.6 140.8 80.6
6/19/2018 24.7 16.3 20.5 0.0 71.4 140.6 78.6
6/18/2018 31.0 21.4 25.5 44.4 71.4 140.6 85.8
6/17/2018 30.6 14.9 23.8 0.0 27.0 96.2 70.5
6/16/2018 26.7 13.5 20.6 0.0 27.0 96.2 63.7
6/15/2018 24.8 9.4 18.2 0.0 27.2 96.2 60.4
6/14/2018 24.8 13.8 19.6 0.0 27.2 96.2 53.2
6/13/2018 27.4 16.0 21.2 27.0 27.2 96.2 80.4
6/12/2018 25.9 9.0 18.3 0.0 0.2 69.2 72.0
6/11/2018 24.1 11.8 18.2 0.0 0.6 69.2 46.6
6/10/2018 20.8 16.1 18.1 0.0 1.6 69.2 67.2
6/9/2018 21.6 12.8 17.5 0.2 4.8 69.2 71.8
6/8/2018 25.1 12.5 19.0 0.0 4.6 69.0 69.8
6/7/2018 23.6 8.9 17.0 0.0 5.0 69.0 70.7
6/6/2018 14.9 9.0 11.7 0.0 5.2 69.0 78.6
6/5/2018 16.0 10.4 13.0 0.4 5.2 69.0 76.1
6/4/2018 18.9 14.2 16.1 1.0 4.8 68.6 77.1
6/3/2018 24.2 13.2 18.1 3.2 3.8 67.6 87.4
6/2/2018 20.9 14.5 17.5 0.0 0.6 64.4 78.1
6/1/2018 27.9 19.6 23.5 0.4 0.6 64.4 79.5
5/31/2018 29.6 20.9 24.0 0.2 0.2 64.0 79.9
5/30/2018 29.8 16.7 23.8 0.0 0.0 63.8 64.5
5/29/2018 28.1 19.0 23.7 0.0 0.0 63.8 65.1
5/28/2018 30.7 17.8 24.8 0.0 3.2 63.8 68.8
5/27/2018 26.9 15.0 21.0 0.0 4.6 63.8 84.4
5/26/2018 28.2 16.1 21.1 0.0 4.6 63.8 65.8
5/25/2018 27.4 13.4 21.5 0.0 11.6 63.8 48.1
5/24/2018 27.7 9.7 20.0 0.0 11.6 63.8 54.9
5/23/2018 25.9 12.5 18.8 0.0 11.6 63.8 66.4
5/22/2018 21.4 13.2 16.3 3.2 11.6 63.8 88.7
5/21/2018 21.2 7.8 14.8 1.4 17.0 60.6 65.0
5/20/2018 20.0 12.2 16.2 0.0 16.0 59.2 83.2
5/19/2018 20.1 9.7 14.8 7.0 16.0 59.2 86.9
5/18/2018 16.9 9.4 13.5 0.0 20.6 52.2 51.1
5/17/2018 24.5 11.0 18.7 0.0 21.8 52.2 68.5
5/16/2018 22.7 9.5 16.3 0.0 29.6 52.2 71.9
5/15/2018 21.4 13.1 16.4 8.6 29.6 52.2 90.3
5/14/2018 22.0 9.1 15.3 0.4 21.0 43.6 83.8
5/13/2018 18.7 6.8 12.9 0.0 20.6 43.2 65.7
5/12/2018 14.3 4.7 8.9 11.6 31.6 43.2 67.3
5/11/2018 10.3 2.5 6.6 1.2 20.0 31.6 70.1
5/10/2018 19.6 8.5 16.5 7.8 26.6 30.4 76.1
5/9/2018 26.3 7.6 16.6 0.0 22.6 22.6 67.5
5/8/2018 22.0 5.3 13.6 0.0 22.6 22.6 60.2
5/7/2018 17.3 8.9 13.1 0.0 22.6 22.6 59.4
5/6/2018 21.3 9.4 14.0 11.0 22.6 22.6 78.4
5/5/2018 22.8 8.4 15.7 0.0 11.6 11.6 59.7
5/4/2018 23.8 8.9 15.9 7.8 12.2 11.6 81.6
5/3/2018 22.0 15.0 17.6 3.8 4.6 3.8 90.1
5/2/2018 25.6 16.1 21.1 0.0 0.8 0.0 46.1
5/1/2018 24.1 7.1 16.6 0.0 12.8 0.0 36.6